{"data":{"norad_id":69231,"intl_designator":"2026-115W","name":"STARLINK-37557","alt_names":[],"object_type":"PAYLOAD","status":"ACTIVE","operator":null,"country":"US","launch_date":"2026-05-26","launch_site_code":"AFWTR","launch_vehicle":null,"mission":null,"orbit_class":"UNKNOWN","rcs_meters":null,"size_class":null,"mass_kg":null,"dimensions":null,"purposes":["comms"],"wikipedia_slug":null,"has_3d_model":false,"image_url":null,"decayed_at":null,"tle_current":{"epoch":"2026-09-20T00:54:03.617568Z","epoch_age_seconds":66917,"freshness":"FRESH","line1":"1 69231U 26115W   26263.03754187  .00036904  00000+0  11372-2 0  9997","line2":"2 69231  97.2832 279.1989 0001760  81.7759 278.3683 15.33519691 19224","mean_motion":15.33519691,"eccentricity":0.000176,"inclination_deg":97.2832,"raan_deg":279.1989,"arg_perigee_deg":81.7759,"mean_anomaly_deg":278.3683,"bstar":0.0011372,"rev_number":1922,"period_min":93.901630898589,"perigee_km":464.11650703136,"apogee_km":466.52540423174,"semimajor_km":6843.4579556316,"source":"CELESTRAK","updated_at":"2026-09-20T09:00:44.105879Z"}}}